Regional Weather Roundup
Issued by NWS Lake Charles, LA

Home | Current Version | Previous Version | Text Only | Print | Product List | Glossary On
Versions: 1 2 3 4 5 6 7 8 9 10 11 12 13 14 15 16 17 18 19 20 21 22 23 24 25 26 27 28 29 30 31 32 33 34 35 36 37 38 39 40 41 42 43 44 45 46 47 48 49 50
000
ASUS44 KLCH 290910
RWRLCH
RWRLCH
REGIONAL WEATHER ROUNDUP
NATIONAL WEATHER SERVICE LAKE CHARLES LA
300 AM CST THU JAN 29 2015

Note: "fair" indicates few or no clouds below 12,000 feet with no
significant weather and/or obstructions to visibility.


ACROSS SOUTHEAST TEXAS

CITY           SKY/WX    TMP DP  RH WIND       PRES   REMARKS
BEAUMONT       FOG       54  53  97 S5        30.17F VSB 1/4
BEAUMONT CITY  FOG       51  51 100 SE3       30.18F VSB 1/4
ORANGE         FOG       54  54 100 CALM      30.20F VSB 1/4
JASPER         FOG       55  54  97 S6        30.20F VSB 1/2
$$

ACROSS CENTRAL LOUISIANA

CITY           SKY/WX    TMP DP  RH WIND       PRES   REMARKS
LEESVILLE      FOG       55  54  97 S7        30.18R VSB 1/2
FULLERTON      CLOUDY    56  52  86 CALM      30.16S
ALEXANDRIA INT CLEAR     53  50  89 S7        30.17S
ESLER FIELD    CLEAR     53  48  83 S6        30.18S
DERIDDER       FOG       54  53  95 CALM      30.20S VSB 1/4
OAKDALE        FOG       41  39  94 CALM      30.19S VSB 1/2
OPELOUSAS        N/A     45  44  97 CALM      30.20F
$$

ACROSS SOUTHWEST AND SOUTH CENTRAL LOUISIANA

CITY           SKY/WX    TMP DP  RH WIND       PRES   REMARKS
SULPHUR        FOG       52  52 100 SE5       30.19F VSB 1/4
LAKE CHARLES   FOG       50  49  96 S3        30.19S VSB 1/2
CHENNAULT INT  FOG       50  50 100 S3        30.20S VSB 3/4
CAMERON PHI    SUNNY     57  55  94 SE6       30.22F FOG
DEQUINCY       FOG       54  54 100 CALM      30.19S VSB 1/2
JENNINGS         N/A     55  54  96 S5        30.20F
LAFAYETTE      CLEAR     52  50  93 S3        30.21F
NEW IBERIA     FOG       48  47  96 S5        30.22F VSB 3/4
ABBEVILLE        N/A     50  50 100 SE6       30.21F
PATTERSON      CLEAR     48  46  93 CALM      30.23S
SALT POINT       N/A     53  53 100 SE5       30.21S
$$

SELECTED SITES ACROSS THE REGION

CITY           SKY/WX    TMP DP  RH WIND       PRES   REMARKS
HOUSTON BUSH   PTCLDY    54  54 100 CALM      30.16F FOG
HOUSTON HOBBY  FOG       53  53 100 S5        30.16F VSB 1/4
GALVESTON      CLEAR     55  55 100 S6        30.18F FOG
COLLEGE STAT   MOCLDY    58  57  97 S8        30.14R
CONROE         CLOUDY    48  46  93 CALM      30.16F
HUNTSVILLE     PTCLDY    59  57  93 S12       30.14R
LUFKIN         CLOUDY    58  54  86 S7        30.15S FOG
SHREVEPORT     PTCLDY    56  51  84 S10       30.10F
MONROE         CLEAR     54  44  69 S9        30.14F
NATCHEZ MS     CLEAR     52  43  71 S8        30.19F
BATON ROUGE    CLEAR     42  38  85 CALM      30.22S
N.O. INTL ARPT PTCLDY    47  43  86 CALM      30.23S
SLIDELL        CLEAR     39  37  92 CALM      30.23S
$$

MARINE REPORTS

STATION/POSITION TIME  TEMP    WIND        PRES    VSBY  WAVE
                       AIR SEA DIR/SP/G                  HT/PER
                 (UTC) (F)     (DEG/KT/KT) (MB)    (MI)  (FT/S)
BUOY 30 S HIGH I 0900   59 57  140/  6/  8 1021.7F         1/ 4
SEA RIM ST PARK  0900   58     160/  7/  8 1022.4F
PORT ARTHUR      0900      54  180/  1/  3 1022.2F
SABINE PASS N    0900   57 56  190/  5/  7 1022.3F
TEXAS POINT      NOT AVBL
CALCASIEU PASS   0900   58 56  170/  6/  7   N/A
LK CHARLES BEACH 0900   54 53              1022.4F
MARSH ISLAND     0800   59     140/  7/  8   N/A
FRESH WATER LOCK 0900   56 58  100/  3/  4 1022.9F
AMERADA PASS     0900   53 49  110/  2/  3 1023.3S
$$


USA.gov is the U.S. government's official web portal to all federal, state and local government web resources and services.